User: anonymous   Login
Location: Caltech
(34.1382°N, 118.1253°W)
Time: 08:33:32
(UTC-07:00)
Language:

Cosmos 1697 Rocket - Orbit

View from above orbital plane
View from above orbital plane
View from above satellite
View from above satellite

Ground track
Ground track

The orbit data is extracted from the following two-line orbital elements,

1 16182U 85097B   16270.39724391  .00000000  00000-0  24149-4 0  9995
2 16182  71.0030 203.0608 0005759 125.7687  13.5900 14.16200640598871
Epoch (UTC): 26 September 2016 09:32:01
Eccentricity: 0.0005759
inclination: 71.0030°
perigee height: 834 km
apogee height: 842 km
right ascension of ascending node: 203.0608°
argument of perigee: 125.7687°
revolutions per day: 14.16200640
mean anomaly at epoch: 13.5900°
orbit number at epoch: 59887

The dashed part of the orbit path shows where the satellite is in the earth's shadow,  

DLR